New Castle, PA

4:29 PM EDT on September 23, 2017 (GMT -0400)
New Castle Municipal

Weather History for KUCP - October, 2011

Change the Weather History Date:

Friday, October 21, 2011

  Actual Average Record
Temperature  
Mean Temperature 44 °F -  
Max Temperature 47 °F 61 °F 82 °F (1979)
Min Temperature 41 °F 38 °F 18 °F (1952)
Degree Days  
Heating Degree Days 21    
Moisture  
Dew Point 39 °F    
Average Humidity 82    
Maximum Humidity 93    
Minimum Humidity 69    
Precipitation  
Precipitation 0.00 in - - ()
Sea Level Pressure  
Sea Level Pressure 29.98 in    
Wind  
Wind Speed 11 mph (WSW)    
Max Wind Speed 17 mph    
Max Gust Speed -    
Visibility 10 miles    
Events Rain    
Averages and records for this station are not official NWS values.
T = Trace of Precipitation, MM = Missing Value Source: NWS Daily Summary

Daily Weather History Graph

Daily Weather History Graph

Search for Another Location

Airport or City:

Trip Planner

Search our weather history database for the weather conditions in past years. The results will help you decide how hot, cold, wet, or windy it might be!

Date:

Astronomy

Oct. 21, 2011 Rise Set
Actual Time 7:39 AM EDT 6:32 PM EDT
Civil Twilight 7:11 AM EDT 7:00 PM EDT
Nautical Twilight 6:39 AM EDT 7:32 PM EDT
Astronomical Twilight 6:07 AM EDT 8:04 PM EDT
Moon 1:24 AM EDT (10/21) 3:18 PM EDT (10/21)
Length of Visible Light 11h 48m
Length of Day
10h 52m
Waning Crescent, 34% of the Moon is Illuminated
Oct 21
Waning Crescent
Oct 26
New
Nov 2
First Quarter
Nov 10
Full
Nov 18
Last Quarter

Hourly Weather History & Observations

Time (EDT) Temp. Windchill Dew Point Humidity Pressure Visibility Wind Dir Wind Speed Gust Speed Precip Events Conditions
12:19 AM 42.8 °F 35.4 °F 39.2 °F 87% 29.71 in 10.0 mi WSW 15.0 mph - N/A   Overcast
1:10 AM 42.8 °F 34.8 °F 39.2 °F 87% 29.74 in 10.0 mi WSW 17.3 mph - 0.00 in   Overcast
2:03 AM 42.8 °F 36.2 °F 39.2 °F 87% 29.76 in 10.0 mi SW 12.7 mph - N/A   Overcast
2:11 AM 42.8 °F 35.8 °F 39.2 °F 87% 29.76 in 10.0 mi WSW 13.8 mph - N/A   Overcast
2:32 AM 42.8 °F 36.6 °F 39.2 °F 87% 29.77 in 7.0 mi SW 11.5 mph - N/A   Overcast
2:56 AM 41.9 °F 34.6 °F 39.9 °F 93% 29.84 in 8.0 mi SW 13.8 mph - N/A   Overcast
3:56 AM 41.9 °F 36.3 °F 39.9 °F 93% 29.86 in 5.0 mi SW 9.2 mph - N/A   Overcast
4:34 AM 42.8 °F 37.5 °F 39.2 °F 87% 29.81 in 10.0 mi WSW 9.2 mph - N/A   Overcast
4:56 AM 41.9 °F 35.9 °F 38.8 °F 89% 29.88 in 10.0 mi WSW 10.4 mph - N/A   Overcast
5:56 AM 41.9 °F 35.9 °F 38.8 °F 89% 29.91 in 10.0 mi SW 10.4 mph - N/A   Overcast
6:56 AM 43.0 °F 36.8 °F 38.8 °F 85% 29.93 in 10.0 mi WSW 11.5 mph - N/A   Overcast
8:43 AM 42.8 °F 38.0 °F 39.2 °F 87% 29.93 in 10.0 mi WSW 8.1 mph - N/A   Overcast
8:56 AM 43.0 °F 37.2 °F 38.8 °F 85% 29.99 in 10.0 mi WSW 10.4 mph - 0.00 in Rain Light Rain
9:18 AM 44.6 °F 38.8 °F 39.2 °F 81% 29.94 in 10.0 mi WSW 11.5 mph - 0.00 in   Mostly Cloudy
9:31 AM 44.6 °F 40.2 °F 39.2 °F 81% 29.94 in 10.0 mi SW 8.1 mph - 0.00 in   Overcast
9:56 AM 43.9 °F 36.8 °F 39.9 °F 86% 30.01 in 10.0 mi WSW 15.0 mph - 0.00 in   Overcast
10:56 AM 45.9 °F 39.1 °F 38.8 °F 76% 30.03 in 10.0 mi WSW 16.1 mph - N/A   Mostly Cloudy
11:56 AM 46.9 °F - 38.8 °F 73% 30.04 in 10.0 mi WSW 10.4 mph - 0.00 in Rain Light Rain
12:56 PM 46.9 °F - 37.9 °F 71% 30.05 in 10.0 mi West 10.4 mph - 0.00 in   Overcast
1:56 PM 47.8 °F - 37.9 °F 69% 30.05 in 10.0 mi West 12.7 mph - N/A   Overcast
2:56 PM 46.9 °F - 37.9 °F 71% 30.06 in 10.0 mi West 10.4 mph - N/A   Overcast
3:17 PM 46.4 °F 42.9 °F 39.2 °F 76% 30.01 in 10.0 mi West 6.9 mph - N/A   Overcast
3:42 PM 46.4 °F 43.5 °F 39.2 °F 76% 30.02 in 10.0 mi WNW 5.8 mph - N/A   Overcast
3:56 PM 46.9 °F - 38.8 °F 73% 30.08 in 10.0 mi West 4.6 mph - N/A   Overcast
4:56 PM 46.9 °F - 38.8 °F 73% 30.10 in 10.0 mi West 8.1 mph - N/A   Overcast
5:23 PM 46.4 °F 42.9 °F 37.4 °F 71% 30.04 in 10.0 mi WSW 6.9 mph - N/A   Overcast
5:56 PM 45.9 °F 41.7 °F 38.8 °F 76% 30.11 in 10.0 mi West 8.1 mph - N/A   Overcast
7:56 PM 45.0 °F 43.5 °F 41.0 °F 86% 30.16 in 5.0 mi WNW 3.5 mph - N/A   Overcast
9:37 PM 44.6 °F 41.4 °F 41.0 °F 87% 30.11 in 10.0 mi WSW 5.8 mph - N/A   Overcast
9:56 PM 45.0 °F 42.6 °F 39.9 °F 82% 30.17 in 10.0 mi WSW 4.6 mph - N/A   Overcast
10:15 PM 44.6 °F 41.4 °F 39.2 °F 81% 30.11 in 10.0 mi Variable 5.8 mph - N/A   Overcast
10:56 PM 45.0 °F 43.5 °F 39.9 °F 82% 30.17 in 10.0 mi SW 3.5 mph - N/A   Overcast
11:56 PM 43.9 °F 42.3 °F 39.9 °F 86% 30.17 in 10.0 mi SW 3.5 mph - N/A   Overcast